カタログに戻る

STARLINK-5872

運用中通信VLEO
NORAD 57232·PAYLOAD·🇺🇸 United States

打ち上げ Jul 7, 2023 から Vandenberg Space Force Base

Loading…

次のパス (今後24時間)

TLE

最新Source: CelesTrak SupGP

元期: Sep 14, 2026, 20:56 UTC

1 57232C 23094Q   26257.87270833  .00058273  00000+0  21107-2 0  2571
2 57232  43.0038  42.4076 0001478 262.3268 232.4446 15.27548383    13

AllMySatでSTARLINK-5872をリアルタイム追跡

Download on the App Store